RH
83 79 75 73 71 69 66 63 63 65 67 67 67 67 68 69 71 72 73 74 75 74 73 72 70 70 69 70 70 70 70 70 70 69 69 68 68 67 67 69 73 76 78 82 85 88 90 91 91 91 90 89 88 87 89 90 89 88 86 85 87 90 95 95 94 95 97 97 97 96 95 96 94 93 95 97 97 97 98 97 96 95 96 97 97 97
90 89 87 84 82 79 76 71 70 71 73 74 74 73 73 73 73 72 70 69 69 70 70 69 69 69 70 70 70 69 69 69 69 70 70 71 71 71 70 70 70 71 75 79 81 83 84 86 88 90 91 92 90 90 92 93 93 91 90 89 88 89 91 88 86 87 93 96 97 97 97 96 95 94 96 97 97 96 96 97 97 97 97 97 97 97
93 92 92 90 89 88 86 80 76 75 76 76 75 73 72 70 69 67 65 63 63 63 64 64 65 66 66 66 65 64 64 64 65 65 66 68 69 70 71 71 71 71 72 73 76 80 83 85 86 88 91 93 93 92 93 93 93 93 92 91 91 90 90 84 81 82 89 94 96 96 96 97 97 96 96 96 96 95 96 96 96 97 97 97 98 98
93 93 93 92 91 90 89 85 82 80 79 78 76 74 73 72 69 67 64 62 61 60 60 60 62 63 64 63 61 60 60 61 61 62 63 64 66 67 69 70 71 71 72 73 75 78 82 84 86 88 91 93 94 94 94 96 96 96 95 95 94 93 93 88 85 85 90 94 96 96 96 97 97 97 95 95 94 94 95 95 96 96 97 97 97 97
93 93 94 93 93 91 90 88 87 86 86 85 83 81 80 78 75 72 67 65 63 61 60 59 60 61 62 61 59 58 58 60 61 62 62 63 64 65 67 68 69 70 72 73 74 76 79 82 85 88 90 92 94 94 96 96 96 97 96 97 96 96 96 94 93 93 95 97 97 98 97 97 97 97 96 94 93 94 94 95 96 97 97 97 97 97
94 93 93 94 94 93 92 91 91 91 92 92 91 90 89 88 85 82 77 73 69 66 63 61 59 59 59 59 58 58 58 60 61 62 63 63 64 64 65 66 67 68 69 71 72 74 75 77 79 81 84 87 90 93 95 96 97 97 97 98 98 97 98 98 97 97 98 98 99 99 99 98 98 98 98 97 97 97 96 98 98 98 97 97 97 97
94 93 93 93 93 93 93 93 93 94 94 94 93 93 93 93 92 90 87 83 79 74 70 65 61 59 58 58 58 59 60 60 61 62 63 63 64 64 64 65 65 66 67 68 69 70 71 71 72 73 74 77 82 86 91 93 94 95 96 96 96 96 96 96 95 94 94 96 98 99 99 99 99 99 99 98 98 98 98 99 98 98 98 97 97 97
94 94 94 94 94 94 94 94 94 94 95 95 95 94 93 93 93 92 91 88 86 83 80 74 69 64 61 60 60 61 62 61 61 62 62 63 64 64 65 65 66 67 67 68 68 69 69 70 70 70 70 72 76 82 87 90 91 93 93 94 95 95 95 94 93 92 91 94 96 97 98 98 98 98 98 98 98 98 98 98 97 97 97 96 96 96
94 94 94 94 94 94 95 94 94 94 95 95 95 95 94 94 94 94 93 91 90 89 88 85 80 73 66 63 64 65 66 65 65 64 64 64 65 65 66 67 68 68 69 70 70 70 71 71 72 72 73 76 80 85 88 90 92 93 94 94 94 95 95 94 94 94 93 95 95 95 96 96 97 97 97 97 97 97 97 96 96 95 96 96 95 95
94 94 94 94 94 95 95 95 93 93 95 95 95 95 95 95 95 95 95 93 92 92 92 92 89 84 74 68 67 69 71 69 68 66 66 66 66 67 68 69 70 71 73 73 74 74 73 73 74 74 74 76 79 82 83 86 89 93 93 94 95 95 95 95 95 95 95 95 95 95 95 96 96 96 97 97 97 97 97 96 95 94 95 96 95 94
95 94 94 94 94 94 95 95 94 93 94 95 95 95 94 95 96 96 96 95 94 94 94 94 93 91 86 79 74 73 76 74 71 67 65 65 65 66 67 68 70 72 73 74 74 73 72 71 71 71 71 72 73 74 74 76 78 81 84 85 87 89 90 91 92 93 93 93 93 93 94 95 96 96 97 97 97 97 97 96 95 94 94 94 94 93
95 95 95 95 95 95 95 95 95 95 95 96 96 95 94 95 96 96 96 96 95 94 95 94 94 93 92 89 85 82 81 80 76 71 67 65 65 65 65 66 68 69 71 71 70 68 67 68 68 70 70 70 70 69 69 69 70 71 72 74 75 77 78 80 82 83 85 86 88 91 92 94 95 96 97 97 97 96 96 95 94 94 93 94 93 92
95 95 95 95 96 95 95 95 95 95 96 96 96 96 96 95 95 96 96 96 96 95 95 95 94 93 93 93 92 90 88 85 81 76 72 69 67 66 67 67 68 68 69 68 66 64 64 66 67 69 69 69 68 67 66 66 67 67 68 69 69 70 71 71 72 73 74 76 79 83 88 91 94 95 96 96 96 95 95 94 94 94 93 93 92 90
95 96 96 96 96 96 95 95 96 96 96 96 96 96 96 96 96 96 97 96 96 95 95 96 95 94 93 93 93 93 93 90 86 81 76 71 69 69 72 72 71 70 70 69 67 65 64 66 66 67 67 67 67 66 66 65 65 66 66 67 67 68 68 68 68 68 69 69 71 74 77 83 88 92 93 94 94 95 95 95 94 94 93 92 92 91
96 96 95 96 96 96 96 96 96 96 96 96 96 96 96 96 96 97 97 96 96 95 96 96 96 95 94 93 94 95 95 94 92 87 79 72 70 71 75 76 74 72 71 71 69 68 67 68 68 68 68 68 68 68 69 68 67 66 65 65 65 65 66 66 67 67 67 68 68 70 72 76 80 84 86 91 93 93 93 93 93 93 92 92 93 93
95 95 96 96 96 96 96 97 97 97 96 96 96 96 97 97 97 97 97 97 96 96 97 97 97 96 96 95 94 95 96 96 94 91 84 77 73 73 77 80 78 75 72 73 72 71 71 71 72 72 72 73 74 75 75 75 74 72 70 68 67 66 65 65 65 65 66 67 68 68 70 72 76 82 88 89 90 90 90 91 92 93 93 95 95 95
95 95 96 96 96 96 96 96 96 96 96 96 96 97 97 97 97 97 97 97 97 97 97 97 97 97 97 96 96 95 96 96 95 94 90 83 78 76 80 83 83 79 76 76 75 75 75 75 74 74 74 76 77 79 81 81 81 80 79 77 75 73 71 69 68 68 68 68 69 69 70 72 75 79 85 88 89 90 92 93 93 94 94 95 95 95
95 96 96 96 96 97 96 96 96 97 96 96 96 97 97 97 97 97 97 97 97 97 97 97 97 97 97 97 96 96 96 96 96 96 94 88 82 79 81 86 86 85 82 80 79 78 78 77 76 75 75 77 79 81 82 83 83 83 83 83 82 82 80 79 77 76 75 75 75 75 75 76 79 84 88 91 92 93 93 93 93 93 94 94 95 95
96 96 95 96 96 96 96 96 96 96 96 96 96 97 97 97 97 97 97 97 97 96 96 97 97 97 97 97 97 96 96 96 96 96 95 91 86 82 83 88 89 88 86 83 81 80 80 78 77 76 76 78 81 83 84 84 84 84 84 85 85 86 86 86 85 84 83 83 83 83 84 86 89 91 92 93 93 93 93 93 93 93 93 93 94 94
95 96 94 95 95 95 95 95 96 96 96 96 96 96 97 95 94 93 93 95 96 96 97 97 97 97 97 97 97 96 96 95 95 96 96 93 88 84 85 90 92 92 89 85 81 80 80 78 76 76 76 79 82 83 84 84 84 84 84 84 85 86 87 87 87 87 87 85 86 88 90 91 92 93 93 93 93 93 92 92 92 92 92 92 93 94
91 88 83 86 91 95 96 96 96 96 95 95 96 96 95 94 94 94 95 96 96 96 96 96 97 97 97 97 97 96 96 95 94 95 96 95 92 89 87 92 94 94 91 85 80 78 79 78 76 76 76 79 81 82 82 82 81 81 81 82 83 84 85 85 87 89 88 85 86 89 91 92 92 93 93 93 92 92 92 92 92 92 92 92 93 93
81 79 73 76 84 93 96 96 95 95 95 95 95 95 94 95 96 96 96 96 96 96 97 97 97 97 97 97 97 97 97 95 95 95 95 96 95 93 90 94 96 96 93 86 80 77 77 77 77 76 77 79 81 81 79 79 78 78 79 79 80 81 82 83 86 88 87 86 88 91 92 93 93 93 93 93 92 92 92 92 93 93 92 92 92 92
76 79 78 82 88 93 95 96 94 91 87 85 86 88 93 95 97 97 97 97 96 97 97 97 97 97 97 97 96 96 96 95 95 94 92 95 96 95 93 96 97 96 94 86 81 79 80 80 79 79 79 81 80 79 78 78 78 78 77 77 78 79 80 80 81 81 82 84 88 91 92 93 93 93 93 93 92 92 92 92 92 92 91 92 92 93
82 87 90 91 93 95 95 93 88 84 81 85 90 94 96 96 96 96 96 96 96 96 96 96 96 96 96 94 92 91 90 93 95 95 93 96 96 96 95 96 96 96 92 86 85 86 88 86 84 83 83 82 81 79 78 78 78 77 76 76 76 76 77 77 76 76 77 82 87 91 93 93 93 93 93 93 92 92 92 92 92 93 91 92 93 93
90 94 95 95 95 95 95 93 91 89 90 93 95 95 95 94 94 94 94 95 94 94 94 95 95 95 93 90 88 88 89 92 94 95 95 96 96 94 92 94 95 95 92 87 88 91 94 92 89 87 86 84 82 80 79 79 78 77 76 75 74 74 74 73 73 73 76 83 88 91 93 93 93 93 93 93 93 92 92 92 92 92 92 93 93 93
91 95 95 95 95 95 96 95 95 96 96 95 94 93 92 93 93 93 93 88 86 86 92 94 95 95 94 95 95 95 94 95 96 96 96 96 96 95 93 95 96 96 94 92 93 95 96 94 92 90 88 85 83 81 81 80 79 77 75 74 74 73 73 72 72 73 76 84 88 91 92 93 93 93 93 93 93 92 92 92 92 92 92 93 93 93
82 90 93 95 96 96 96 96 95 95 94 91 88 85 84 87 89 88 85 75 76 83 93 94 95 95 96 96 97 97 96 97 97 96 96 96 96 96 95 95 95 96 96 96 95 96 96 95 93 92 90 86 84 83 83 82 79 77 75 74 74 74 75 76 76 76 77 84 88 90 91 92 93 93 93 93 93 93 92 92 92 92 92 93 93 92
68 78 88 93 95 95 95 95 94 92 88 78 69 63 65 72 77 79 74 71 77 88 95 96 96 96 96 97 97 97 97 97 96 96 96 95 95 96 96 95 95 96 96 96 96 95 96 95 94 93 91 88 86 85 84 82 79 76 75 74 74 75 77 79 81 81 80 82 85 89 91 92 93 93 93 93 93 93 92 92 92 93 93 93 92 90
68 78 88 92 94 94 94 93 90 84 77 68 61 58 59 64 69 72 70 73 82 92 95 96 96 96 97 97 96 96 96 96 96 96 96 95 95 96 95 95 96 96 96 96 96 96 95 95 94 93 91 89 88 86 84 81 78 77 76 76 77 77 79 81 82 83 82 81 82 84 88 90 92 93 93 93 92 92 92 92 92 93 93 92 91 89
78 86 91 92 93 92 92 88 83 76 69 63 58 57 58 62 67 71 74 79 86 92 94 94 95 95 95 95 95 96 96 96 95 96 96 95 96 96 95 96 96 96 96 96 96 96 96 95 94 93 91 90 89 87 84 82 80 80 79 79 79 79 80 81 82 82 81 78 77 78 81 85 88 91 92 91 91 91 91 91 92 93 93 92 91 89
91 93 94 93 92 91 89 85 79 72 65 59 56 56 59 64 70 75 80 86 91 93 94 95 95 95 95 93 94 96 97 96 96 96 96 96 96 96 96 96 96 96 96 95 94 94 97 96 95 94 93 92 91 89 87 85 84 83 82 81 80 79 79 81 81 80 78 76 75 75 76 79 83 86 90 90 91 91 91 91 91 91 92 91 88 85
95 95 95 94 92 90 87 80 73 66 60 56 55 57 62 68 74 80 86 91 94 95 95 95 95 95 95 94 95 96 97 96 96 96 96 96 96 96 96 96 96 96 96 96 95 95 96 96 96 95 95 94 93 92 91 88 87 85 84 83 81 80 79 80 80 79 77 75 74 74 75 77 79 81 85 87 88 88 88 88 89 89 90 88 85 83
95 95 94 93 90 86 80 73 66 61 56 55 56 59 65 71 77 82 87 91 94 94 94 95 95 95 95 95 95 96 96 95 95 95 96 96 96 97 97 97 96 96 96 96 96 96 96 96 96 96 95 95 94 93 92 90 88 86 85 83 81 80 79 80 81 80 78 76 74 74 75 76 78 79 80 81 82 82 82 82 82 83 85 85 86 88
95 94 93 90 85 78 71 65 61 58 55 55 57 62 68 75 80 84 86 89 91 93 93 93 93 94 95 95 95 95 93 90 90 92 95 95 96 96 96 96 96 96 96 96 96 96 96 96 96 96 96 95 94 93 93 91 89 87 85 84 82 80 79 80 81 81 80 77 75 74 74 75 76 77 77 78 78 78 78 77 77 78 84 88 91 93
94 92 90 84 77 70 64 61 58 56 56 58 62 68 75 82 86 89 89 88 88 89 90 91 92 93 94 94 94 93 91 88 89 91 94 94 95 95 96 96 96 96 96 96 96 96 96 96 96 96 96 95 94 94 93 92 91 90 87 85 83 81 80 80 81 82 81 79 77 75 73 73 74 75 75 75 76 76 76 75 76 80 87 91 93 93
93 89 83 76 71 67 63 61 59 59 59 63 68 75 81 85 88 89 88 88 87 87 86 87 87 88 89 90 92 93 93 91 92 93 94 94 94 95 95 95 96 96 96 96 96 96 96 96 96 96 96 96 95 94 94 93 93 92 90 88 86 84 82 81 82 83 83 81 78 76 74 73 73 73 73 73 74 75 75 75 77 81 86 88 90 92
86 81 76 73 70 68 66 65 64 64 66 70 74 78 83 85 87 89 90 90 90 89 88 87 86 86 87 89 91 93 94 93 94 94 94 94 94 94 95 95 96 96 96 96 96 96 96 96 96 96 96 96 96 95 95 94 93 92 92 90 88 86 84 83 83 84 85 83 80 78 75 74 74 73 72 73 74 75 74 75 77 81 84 85 87 89
81 77 75 73 72 71 69 69 69 70 72 75 77 80 83 86 89 91 93 93 92 92 90 88 87 86 87 90 92 94 94 94 94 94 94 94 94 94 95 95 96 96 96 96 96 96 96 96 96 96 96 96 96 95 95 95 94 93 93 91 90 88 85 84 84 85 85 85 82 80 77 75 74 73 73 73 74 74 73 73 76 79 82 84 85 86
82 79 77 76 74 73 72 72 72 73 75 77 79 82 85 88 91 92 93 93 92 91 89 86 85 85 87 90 92 93 93 93 93 94 94 94 94 94 94 95 95 96 96 96 96 96 96 96 96 96 96 96 96 95 95 95 94 93 93 92 91 89 86 85 85 86 86 85 83 80 76 75 74 74 74 75 75 75 74 73 76 79 83 84 83 83
82 81 78 77 75 74 73 74 75 76 77 78 79 83 88 91 92 92 92 92 91 89 85 82 81 82 86 89 90 89 88 88 90 92 94 94 95 95 95 95 95 96 96 96 96 96 96 96 96 96 96 96 96 95 95 95 94 94 94 93 93 91 86 86 86 86 86 85 83 81 77 76 76 75 75 75 75 75 75 76 78 81 85 86 85 84
84 82 80 78 76 74 74 76 77 78 78 78 80 85 90 92 93 92 90 87 84 81 78 76 76 77 79 81 82 82 83 84 86 88 91 94 95 95 95 95 95 95 95 95 96 96 96 96 96 96 96 96 96 95 95 95 94 94 94 94 93 91 88 88 87 87 86 85 84 83 81 79 77 76 75 75 74 74 76 78 81 83 86 87 87 87
85 85 84 81 79 77 76 77 77 78 78 80 85 90 92 92 90 88 84 81 77 76 77 77 76 75 73 73 73 75 78 80 82 85 87 91 93 95 95 95 95 95 94 95 95 96 96 96 96 96 96 95 95 95 95 94 94 94 94 93 93 91 89 87 86 86 87 86 85 85 84 82 80 78 76 74 72 72 75 79 83 85 87 87 87 88
86 88 89 87 83 79 77 77 77 79 82 87 90 91 89 85 82 80 78 78 78 77 77 77 77 76 76 75 74 75 77 80 83 85 86 88 91 93 95 95 95 95 94 94 95 95 95 96 96 96 95 95 95 95 95 95 94 93 93 92 93 93 91 88 87 86 87 86 86 86 86 85 84 82 79 74 71 70 72 77 81 85 87 87 86 87
90 93 93 89 84 79 77 79 81 84 88 91 90 88 84 81 80 80 80 81 81 81 80 79 79 80 81 81 82 83 83 83 84 85 86 87 88 90 92 94 95 95 95 94 94 95 95 95 95 94 94 95 95 95 95 95 94 93 92 91 91 90 89 87 85 84 84 84 85 85 87 87 87 84 80 74 71 69 71 74 78 81 84 85 85 85
93 93 91 86 82 79 81 84 86 88 91 90 88 85 82 82 83 84 85 86 86 85 84 84 85 86 87 89 90 91 90 88 86 85 84 85 86 87 88 91 93 94 95 95 95 95 95 95 95 94 94 95 95 95 95 95 94 93 92 90 88 86 83 82 81 81 81 81 82 84 86 88 88 85 80 75 71 69 70 72 75 78 81 83 83 84
93 90 86 81 80 83 87 89 90 90 89 88 86 85 85 86 87 88 90 90 89 88 86 87 88 90 91 92 92 91 90 87 85 84 84 84 84 85 85 86 88 91 93 94 95 95 95 95 95 95 95 95 95 95 94 94 93 92 90 88 87 85 83 80 79 78 79 80 81 83 85 87 87 85 81 76 71 68 68 71 74 77 79 81 81 82
88 84 79 79 82 86 89 89 90 90 90 89 89 88 89 89 89 89 90 90 89 88 86 86 88 89 91 92 92 92 91 90 87 85 85 85 84 82 82 82 84 86 89 92 93 94 95 95 95 95 94 95 95 94 94 93 93 92 89 88 87 85 82 79 77 77 78 80 81 83 85 86 86 85 82 77 72 68 66 69 73 76 78 80 80 81
83 80 78 80 83 86 88 88 88 89 91 91 91 91 91 91 91 91 90 89 88 85 83 84 86 89 91 91 91 92 92 93 91 89 87 85 82 81 80 80 81 82 85 88 91 93 94 94 95 95 94 94 94 94 93 93 92 92 90 90 89 87 83 79 78 78 79 80 82 84 85 86 87 86 84 80 74 68 65 68 72 76 78 79 80 81
82 80 80 81 83 84 86 87 89 91 92 92 92 92 91 91 90 90 89 87 85 83 82 84 87 90 92 92 91 91 92 93 92 91 89 87 86 85 85 84 83 83 84 86 88 91 92 93 93 94 94 94 94 94 93 92 92 91 91 90 89 86 83 80 79 79 79 81 83 84 86 87 88 88 88 85 77 69 64 67 71 74 77 78 80 80
81 80 80 82 84 86 88 90 91 92 92 92 92 91 90 89 88 87 85 84 84 83 84 86 89 91 92 92 92 92 92 93 93 92 91 91 91 92 92 91 90 89 88 88 89 90 91 91 91 91 91 91 92 92 92 90 90 89 89 87 85 84 82 80 79 80 81 82 83 84 85 86 88 89 89 87 80 72 64 67 70 73 75 77 79 80
81 80 80 82 85 87 90 91 92 92 92 92 92 91 90 89 86 84 82 83 83 84 85 86 88 91 92 92 92 92 93 93 93 93 92 92 92 93 94 94 94 93 93 92 92 92 92 92 91 89 85 85 85 85 86 87 87 87 86 84 82 81 80 79 80 81 82 83 83 82 82 83 85 86 88 87 82 74 66 67 69 72 74 76 78 80
Wind_Speed
31 32 31 30 29 29 29 27 26 26 27 26 25 24 24 24 25 25 24 25 25 25 25 25 25 25 26 26 25 25 25 25 25 25 26 26 27 28 28 29 30 30 30 31 31 31 31 31 31 31 31 32 32 32 31 31 31 32 32 33 33 33 33 33 33 32 31 31 31 32 32 32 32 31 30 30 31 32 33 33 33 33 32 32 32 32
29 30 30 29 29 29 29 27 25 25 26 26 26 25 25 25 26 25 24 23 23 23 23 23 23 23 23 23 22 22 22 22 22 23 23 23 24 25 25 26 26 27 27 27 28 29 29 29 29 30 30 30 30 30 30 30 30 31 31 32 33 33 33 34 35 34 33 32 32 32 32 32 32 31 31 31 32 32 33 33 33 33 32 32 32 32
28 29 29 28 28 29 30 30 28 27 28 28 28 28 27 28 28 27 26 25 24 23 23 23 24 24 24 22 21 20 20 20 20 21 21 21 22 22 23 23 24 24 24 24 25 26 27 28 28 28 28 28 29 29 29 29 29 30 30 31 32 33 34 35 36 35 34 33 32 32 32 32 31 31 31 31 32 32 32 33 33 33 33 33 32 32
29 29 29 29 29 30 31 31 31 30 30 30 30 29 29 29 29 29 28 28 27 27 27 27 27 27 27 25 22 20 20 20 20 20 20 20 20 20 21 21 21 21 22 22 23 24 24 26 26 27 27 28 28 28 28 28 28 29 29 30 30 31 32 34 34 34 33 33 32 32 32 32 32 32 32 32 32 32 32 33 33 33 33 33 33 32
31 30 30 30 30 31 31 31 31 31 31 31 31 31 30 31 31 31 31 30 30 30 30 30 30 30 29 28 25 23 22 22 22 22 21 20 20 20 20 20 20 20 21 21 21 22 23 24 25 26 27 27 28 28 28 28 28 29 29 29 29 30 30 31 32 32 32 32 32 32 32 32 32 31 31 32 32 32 32 33 33 33 32 32 32 32
33 32 32 31 30 30 31 31 31 31 31 31 31 31 31 32 32 32 32 32 32 32 32 31 31 30 30 29 27 26 25 25 25 24 23 22 22 21 21 21 21 21 21 21 21 21 22 23 24 25 25 26 27 27 28 28 28 28 29 29 29 30 30 30 31 31 31 31 31 31 31 30 30 30 30 30 30 30 31 31 31 31 30 30 30 30
35 34 33 32 31 31 31 31 31 30 30 30 30 31 31 31 31 31 32 32 32 32 31 31 30 29 29 28 28 28 27 27 26 25 24 23 23 22 21 21 21 21 21 21 21 21 22 22 23 24 25 25 26 27 27 27 28 28 28 28 29 29 29 30 31 31 32 31 31 30 30 30 29 29 29 29 29 29 29 29 29 29 28 28 28 29
36 36 34 32 32 32 32 31 30 30 29 29 30 31 32 32 32 32 32 32 32 32 32 31 30 29 28 27 28 28 28 28 27 26 25 24 23 23 22 22 21 22 21 22 21 21 22 22 22 23 24 25 25 26 26 27 27 27 27 27 27 28 28 29 29 30 31 31 31 30 30 29 29 29 29 29 29 29 28 28 28 29 29 29 29 29
37 37 35 34 33 33 33 33 32 30 29 29 30 31 32 33 32 32 32 32 32 32 31 32 32 31 29 27 27 28 28 28 28 27 26 25 24 24 23 23 23 22 22 21 21 21 21 21 21 22 22 23 24 25 26 26 27 27 27 27 27 27 27 27 27 28 28 29 29 29 29 29 29 29 29 29 29 29 29 29 29 30 30 30 30 31
36 37 36 36 34 33 33 34 34 32 31 31 31 31 32 33 33 32 33 33 33 32 31 31 32 32 32 30 28 28 29 28 28 27 26 26 26 25 25 25 24 23 22 22 21 20 20 20 20 20 20 21 22 23 24 25 26 26 27 27 27 27 27 27 27 27 27 28 28 28 29 29 29 29 29 29 29 29 28 29 29 29 29 29 30 31
35 35 36 36 35 34 33 34 34 33 32 32 33 33 34 33 32 32 32 33 33 32 32 32 32 33 34 33 31 30 30 30 29 28 27 27 27 26 26 25 24 23 22 21 20 19 18 17 17 17 17 18 19 20 21 22 23 24 25 26 26 26 27 27 27 28 28 28 28 28 28 28 28 28 28 28 27 27 27 27 27 27 28 29 30 31
34 34 34 35 34 34 33 33 32 32 32 32 32 33 33 33 31 31 31 32 33 33 33 33 34 34 34 34 34 33 32 32 32 31 30 29 28 27 26 25 23 22 21 19 18 16 15 15 15 15 16 16 17 17 18 19 20 21 22 23 23 24 24 25 26 26 27 27 28 27 27 27 27 27 27 26 26 26 26 26 27 27 28 29 30 31
35 35 33 33 33 33 32 32 32 32 32 32 31 31 32 33 32 30 30 32 33 33 33 33 34 35 35 35 34 34 34 34 33 32 32 31 30 28 27 26 24 23 22 21 19 16 15 14 15 15 15 15 16 16 16 16 17 18 19 20 20 21 22 22 23 24 25 25 26 26 26 27 27 26 26 27 27 27 27 28 28 29 30 30 31 32
36 34 33 33 31 30 30 30 30 30 31 31 31 32 33 34 33 31 31 32 33 34 33 34 35 37 37 35 34 33 33 33 33 33 32 31 30 29 28 27 27 26 25 25 23 21 19 18 17 16 16 15 15 15 15 15 16 16 17 18 18 19 20 21 21 22 23 24 24 25 26 27 27 27 28 28 28 28 29 29 30 30 31 31 32 32
30 29 28 28 28 28 28 28 29 30 31 32 33 34 34 34 33 32 31 32 33 33 33 33 35 37 36 36 34 32 31 31 31 32 32 32 31 29 28 28 28 28 28 28 28 26 24 23 22 21 19 18 18 17 17 17 16 16 17 17 18 18 19 20 21 22 22 23 24 25 25 26 27 28 28 29 28 28 29 30 30 30 30 31 31 31
27 27 28 28 29 29 29 29 29 31 32 33 33 33 32 32 32 31 31 31 31 31 31 31 33 35 36 35 33 29 27 27 28 31 33 34 33 31 30 29 30 31 31 31 31 30 29 28 27 26 25 24 22 21 21 20 19 19 19 19 19 19 20 20 21 22 22 23 23 24 25 26 26 27 27 28 28 28 28 29 29 29 29 29 30 30
31 31 31 31 31 32 32 31 32 33 33 34 33 33 32 32 32 31 30 30 30 29 29 29 30 30 32 31 29 27 24 24 26 29 32 35 35 34 32 31 31 32 33 33 32 32 31 31 30 29 29 27 26 25 24 23 22 21 21 21 21 21 21 22 22 22 23 23 23 24 24 25 25 26 26 26 27 27 27 27 27 28 28 28 29 29
33 33 33 33 33 33 33 33 33 33 35 35 35 34 33 32 31 30 29 29 29 29 29 29 29 29 29 29 29 28 26 24 25 28 31 34 36 36 33 32 33 34 34 35 34 33 33 32 32 31 30 29 27 26 25 23 22 22 21 21 22 22 22 23 23 23 23 23 23 24 24 24 25 25 25 25 26 26 26 26 27 27 28 28 29 29
34 34 34 33 33 33 33 33 34 35 35 35 34 32 30 29 28 28 28 28 28 28 28 29 30 30 31 32 32 32 30 27 27 29 31 34 36 36 34 33 34 35 36 36 35 34 33 33 32 31 30 28 27 25 24 23 22 21 21 21 21 21 22 23 23 24 24 24 24 24 24 24 25 25 25 25 25 25 26 26 27 27 28 28 29 30
35 34 33 33 33 33 34 35 36 35 34 33 31 29 27 27 27 27 26 26 26 27 29 30 31 31 32 34 36 36 34 31 30 30 32 34 36 37 36 35 35 36 37 37 36 34 34 33 32 30 29 27 26 24 23 21 20 20 19 19 20 20 21 21 22 23 23 24 24 24 25 25 25 25 25 25 25 26 26 26 27 27 28 29 29 30
34 33 32 31 31 33 35 36 37 36 34 33 31 30 29 27 26 26 26 27 27 28 29 30 31 32 33 35 37 38 36 34 31 31 33 35 37 38 37 36 35 35 37 37 36 34 33 33 32 30 28 26 25 23 21 20 19 18 18 18 18 19 19 20 21 22 22 23 24 24 24 24 25 25 25 25 25 26 26 26 27 27 28 28 29 29
33 32 31 30 31 33 35 36 35 33 30 27 26 25 24 24 25 26 27 28 28 29 29 30 32 33 35 36 38 38 37 36 34 33 33 34 36 37 36 34 33 34 36 37 36 35 34 33 32 30 28 26 24 22 20 18 17 17 17 17 17 18 18 19 20 21 22 22 23 24 24 24 25 25 25 25 25 25 26 26 26 27 27 27 28 28
32 31 31 31 32 33 34 34 31 28 24 22 22 22 23 25 26 28 28 29 29 29 30 32 34 36 36 37 37 37 35 35 34 34 33 33 35 36 34 32 31 32 35 36 36 35 34 33 31 29 27 24 22 21 19 17 16 16 16 16 17 17 18 18 19 20 21 22 23 23 24 24 24 25 25 25 25 25 25 25 25 26 26 26 27 27
30 31 32 32 33 34 33 31 28 25 23 23 24 25 26 26 27 28 28 28 29 30 32 34 36 37 37 37 36 35 33 31 29 29 30 32 33 33 32 30 29 31 34 35 35 34 33 32 30 27 26 24 22 20 18 17 16 16 16 16 16 17 17 18 19 20 21 22 22 23 23 24 24 24 24 24 24 24 25 25 25 25 25 26 26 27
30 31 33 34 34 34 32 29 27 25 25 25 25 26 26 26 26 27 27 29 31 32 34 34 35 36 36 36 35 34 32 29 26 25 26 29 31 32 32 31 30 30 33 33 32 31 31 30 29 27 25 23 21 19 18 17 16 16 16 16 16 17 17 17 18 19 20 21 21 22 22 23 23 23 23 24 24 24 24 24 24 25 25 26 27 27
30 31 32 34 34 33 30 28 26 25 24 24 24 25 25 26 27 29 31 32 34 34 34 33 34 35 34 33 32 31 29 27 25 24 24 26 29 31 33 31 29 29 31 31 30 29 29 29 28 27 26 24 21 19 18 17 17 16 16 16 16 15 15 15 16 17 18 19 20 21 21 21 22 22 22 23 23 23 23 24 24 25 26 26 27 28
30 30 31 31 31 29 27 25 23 22 22 23 25 26 28 29 30 32 33 34 34 32 30 31 32 32 31 29 28 27 25 24 23 23 23 25 27 31 32 31 29 29 30 30 30 29 28 28 28 27 26 24 21 20 18 17 17 16 16 15 15 14 14 14 15 16 17 18 19 19 19 20 20 21 21 22 22 22 23 23 24 25 25 26 28 29
30 29 28 27 25 23 21 20 20 21 23 25 27 28 30 30 31 32 33 33 31 29 28 28 29 29 28 27 26 26 25 24 24 24 24 25 28 31 33 30 28 28 29 29 29 28 27 27 27 27 25 23 21 20 18 17 17 16 15 15 14 14 14 15 15 16 16 17 18 18 18 18 19 19 20 20 21 21 22 23 23 24 25 27 29 30
29 28 27 24 20 17 16 17 19 22 25 27 29 30 30 30 30 31 31 29 27 26 27 28 28 29 29 29 29 28 28 27 26 25 23 24 28 30 30 28 27 27 27 27 28 27 27 27 26 26 24 22 20 19 18 17 17 16 16 15 15 15 16 16 16 16 16 17 17 17 18 18 18 19 19 19 20 20 21 22 23 24 25 27 29 30
28 28 26 22 19 17 17 19 22 25 27 29 29 30 29 29 28 27 26 24 23 23 25 26 27 27 27 28 28 27 25 24 22 20 19 21 25 27 26 25 25 25 25 25 25 25 26 26 25 23 21 20 19 18 18 18 18 18 17 17 17 17 17 17 16 16 16 16 17 17 17 17 18 18 19 19 19 20 21 21 22 23 24 26 28 30
29 29 28 25 23 22 22 24 25 27 28 29 29 29 28 26 24 22 20 19 18 19 21 22 23 24 24 25 24 23 21 20 19 17 17 18 22 24 24 24 24 24 24 23 22 21 21 21 20 18 17 17 17 18 19 20 20 19 19 19 18 18 17 16 16 16 16 16 16 16 16 17 17 17 18 18 19 19 20 20 21 22 23 25 27 29
30 30 30 30 29 27 26 26 26 28 29 29 29 28 26 23 20 18 16 16 17 19 21 22 23 23 23 24 24 24 24 23 22 21 20 20 22 24 24 24 24 24 24 23 23 22 20 19 18 17 17 17 18 20 22 22 21 21 20 19 19 18 17 16 15 15 15 15 15 16 16 16 16 16 16 17 17 18 18 19 19 21 22 24 26 27
29 29 30 30 29 27 26 26 27 28 29 30 29 27 24 21 18 17 16 16 17 20 23 25 26 26 26 26 27 27 27 27 25 24 23 23 24 25 25 25 24 24 24 24 24 25 25 24 23 22 22 22 22 22 23 23 22 21 20 20 19 18 17 16 15 15 14 14 15 15 16 16 16 15 15 15 15 16 16 17 18 19 20 22 23 23
29 30 29 28 26 25 25 26 27 28 29 29 28 26 23 20 18 18 17 18 19 20 22 24 26 27 27 27 27 28 30 29 27 25 23 23 24 25 25 24 24 23 23 24 24 25 26 27 27 26 25 25 24 24 23 23 22 21 20 20 19 19 18 17 16 15 15 15 15 15 16 16 16 16 15 15 14 15 15 16 17 18 19 20 21 22
31 30 28 25 24 23 24 25 26 27 28 27 26 24 21 20 19 19 20 20 21 22 23 23 24 25 26 27 28 29 30 29 27 24 23 22 23 24 24 24 24 23 23 23 24 24 25 26 26 25 24 24 24 24 23 22 21 20 20 20 20 20 19 18 17 17 16 15 15 15 15 15 15 15 15 14 14 14 14 15 16 17 18 19 19 21
25 23 22 21 21 22 23 24 25 25 25 25 24 22 20 19 19 19 20 21 21 23 24 25 26 26 27 28 28 29 29 28 26 24 22 21 21 23 24 25 24 23 23 23 24 24 24 25 25 24 23 23 23 22 22 21 20 19 20 20 21 21 21 20 19 18 17 16 15 15 14 14 14 14 14 13 13 13 13 14 15 16 17 18 18 19
18 18 18 19 20 21 22 23 24 24 23 23 22 20 19 18 18 18 18 19 20 22 23 24 25 25 26 27 27 27 27 27 25 23 21 20 20 21 23 24 24 23 23 23 24 24 24 24 24 23 23 22 22 21 20 19 19 19 20 21 21 22 21 21 20 19 18 16 15 15 14 14 14 13 13 12 12 12 13 13 14 15 16 17 17 17
16 17 18 19 20 21 22 22 23 22 22 21 20 19 18 17 17 17 17 18 20 22 24 25 24 23 23 23 24 25 25 25 24 23 21 19 19 19 21 22 23 23 22 23 23 23 23 23 23 23 22 22 21 20 19 19 19 19 20 21 22 22 22 21 20 19 18 17 15 14 13 13 12 12 12 12 12 12 12 13 13 14 15 16 16 16
18 18 19 19 20 21 22 22 22 22 22 21 20 18 17 17 17 17 18 19 22 24 26 26 25 23 21 21 22 23 25 25 24 23 21 19 18 18 18 19 20 21 21 21 21 21 22 23 23 23 22 22 21 21 20 20 20 20 20 21 22 23 22 21 20 19 18 17 15 14 12 11 11 11 11 11 11 11 12 12 13 14 15 16 16 16
18 19 19 20 21 22 22 22 22 22 21 20 19 18 17 17 18 20 21 23 25 27 28 26 24 22 21 21 22 23 24 24 23 22 21 19 18 17 16 16 17 18 18 18 19 19 20 21 22 22 22 22 21 21 21 20 20 20 20 21 22 23 22 21 20 19 18 17 15 13 12 10 10 10 10 10 11 11 11 12 13 14 15 16 16 17
19 19 20 21 22 22 23 22 22 21 21 20 18 17 17 19 21 23 26 27 28 28 26 24 23 22 22 22 22 23 23 22 22 22 20 19 18 16 15 14 14 15 15 16 17 18 18 19 20 20 20 20 21 21 21 21 21 20 20 21 22 23 22 20 20 19 18 16 15 13 11 10 10 10 10 10 10 10 11 11 12 13 14 14 15 16
20 20 21 21 22 23 23 23 22 21 20 19 18 17 18 21 23 25 26 26 26 25 23 22 22 22 22 23 22 21 20 19 19 19 19 19 18 16 15 14 13 13 13 14 16 16 17 17 18 19 19 19 20 21 22 22 21 21 20 21 21 21 21 20 19 18 17 16 14 12 11 11 10 10 10 11 11 10 10 11 11 12 13 13 13 14
21 21 21 22 23 23 23 23 22 21 20 19 18 19 20 21 22 22 23 23 23 22 22 22 21 21 22 22 21 20 18 16 16 16 17 17 17 17 16 14 13 12 12 13 15 16 16 16 17 18 18 18 19 20 21 21 21 21 20 20 19 20 21 20 19 18 17 16 15 13 12 12 11 11 11 11 11 10 10 10 11 11 12 12 12 12
21 21 22 22 23 24 23 22 21 20 20 19 20 20 20 20 20 20 20 21 21 22 22 21 21 20 20 20 20 19 17 15 14 14 14 15 16 16 16 15 14 13 12 13 14 15 15 16 17 17 17 17 18 19 20 20 20 20 19 18 18 19 19 19 18 18 17 16 15 14 13 13 12 12 12 11 11 10 10 10 10 10 10 10 10 11
21 21 21 22 23 23 22 21 21 20 20 20 20 21 21 20 20 20 20 21 22 22 22 21 20 20 19 19 19 18 17 15 14 12 12 12 13 14 15 15 15 15 14 14 13 13 14 15 16 16 16 16 17 18 18 19 19 19 19 18 18 18 18 18 17 17 17 16 16 14 13 12 12 12 12 11 10 10 10 10 9 9 8 8 8 9
19 19 20 21 22 21 21 20 20 20 20 20 21 21 21 21 20 20 20 21 21 22 21 20 19 18 18 18 18 18 17 16 14 12 11 11 11 12 13 14 15 15 15 15 14 14 14 14 14 14 15 16 17 18 18 18 18 18 18 18 18 18 18 17 17 16 16 16 15 13 12 11 11 11 11 11 10 10 10 9 9 8 7 7 7 7
17 18 20 21 21 20 20 20 20 20 20 21 21 21 21 20 20 19 20 20 21 21 21 20 18 17 17 17 17 17 17 17 16 14 12 11 11 12 13 14 15 15 16 16 15 15 14 14 13 13 14 15 17 18 18 18 18 18 18 18 18 18 18 17 16 15 15 15 14 13 11 11 10 10 10 10 10 11 10 9 8 7 6 5 5 6
18 19 20 20 20 20 19 19 19 19 20 21 21 21 21 20 19 19 19 20 20 21 20 19 18 16 16 16 16 16 16 16 16 15 14 13 13 13 13 14 15 15 16 16 16 16 15 15 14 13 14 15 16 17 18 18 18 18 18 18 18 18 17 16 15 15 14 14 13 12 11 10 10 9 9 10 10 10 10 9 7 5 4 4 4 5
19 20 21 20 20 20 19 19 19 19 20 21 22 22 21 20 19 19 19 20 20 20 19 18 17 16 16 16 16 15 15 15 15 14 14 14 13 14 14 14 14 15 15 15 16 16 16 16 15 15 14 15 16 17 17 17 17 17 17 17 17 17 16 15 14 14 13 13 13 12 11 10 9 9 9 10 11 10 9 8 6 4 3 3 3 4
20 21 21 20 20 19 19 19 19 19 20 21 21 21 21 20 19 19 19 19 19 19 18 17 16 16 16 16 16 15 15 15 15 14 14 13 14 14 15 15 15 14 14 14 14 15 16 16 17 17 16 15 15 16 16 17 16 16 16 16 15 15 14 13 12 12 12 12 12 11 10 10 9 9 9 10 11 10 9 8 6 3 1 2 3 3
21 22 21 20 19 19 18 18 19 19 19 20 21 21 21 20 20 19 19 18 18 18 17 16 15 15 15 15 15 15 16 16 17 17 15 14 14 15 15 16 16 16 16 16 16 16 16 17 18 18 17 16 14 14 14 14 14 14 14 14 13 12 12 11 10 10 10 10 10 10 10 9 9 9 9 10 10 10 8 7 5 3 0 2 3 3
Wind_Direction
294 296 298 300 301 300 300 301 301 301 301 301 302 303 303 301 299 297 295 294 292 292 291 290 289 289 287 286 285 285 285 284 284 284 284 284 284 283 282 280 279 278 277 277 277 276 276 276 275 274 273 272 272 271 271 271 270 269 267 266 266 268 270 270 270 270 270 270 269 269 268 268 268 268 269 269 270 269 269 270 270 270 270 270 270 271
297 300 302 304 304 304 304 307 308 309 309 309 310 309 308 306 304 303 302 300 299 298 297 296 295 293 292 290 288 286 284 283 283 283 284 283 283 282 280 279 278 277 277 276 276 276 276 276 275 275 274 274 273 272 272 272 271 270 269 268 267 267 269 268 267 267 269 270 270 270 269 269 269 269 268 268 268 268 268 268 268 268 268 268 269 269
297 299 299 301 301 301 302 306 309 310 310 311 311 310 310 308 307 307 307 306 305 304 303 302 302 301 300 299 296 292 289 287 286 286 286 284 283 281 279 277 275 275 274 274 275 275 275 275 275 275 275 274 274 273 272 272 272 271 270 269 268 268 267 266 264 265 267 269 270 270 270 270 269 268 268 267 266 266 267 266 266 267 267 267 267 268
296 297 297 299 299 299 300 303 306 308 309 310 310 310 310 309 308 308 308 308 307 306 305 305 305 305 306 306 304 302 299 297 296 294 293 291 288 285 281 278 276 274 274 273 274 274 275 276 276 276 275 274 274 273 272 272 272 271 270 269 269 268 268 266 264 264 266 267 269 270 270 270 269 268 268 267 266 266 266 266 266 265 265 265 266 267
294 295 296 296 296 297 298 301 303 305 307 307 307 308 308 308 307 308 308 308 307 306 306 306 305 305 305 306 307 306 306 305 304 303 301 298 295 292 287 284 281 279 278 277 276 276 276 276 276 276 275 274 273 272 271 271 270 270 270 270 269 268 268 267 266 265 265 266 267 268 268 268 268 267 267 267 266 266 266 266 265 263 263 263 263 265
293 294 295 294 293 293 295 297 300 302 303 303 303 304 304 304 304 305 305 306 307 307 306 306 305 305 304 304 305 306 307 306 306 305 303 302 299 296 292 289 286 284 283 282 280 279 277 276 275 274 274 273 272 271 271 271 270 270 269 269 268 268 267 267 265 264 265 266 267 267 268 267 267 267 267 266 266 266 266 265 264 262 261 261 262 264
292 293 293 292 291 291 292 294 297 298 298 297 298 299 300 301 300 300 301 304 305 307 307 307 307 306 304 304 305 306 306 306 305 304 303 302 300 298 295 292 289 287 285 283 281 280 278 276 275 273 272 271 271 271 271 271 271 270 270 269 269 268 267 267 264 263 263 265 267 268 269 269 268 268 267 267 267 266 266 266 265 264 263 262 262 263
290 291 290 289 289 290 291 292 294 295 294 294 294 296 298 299 299 299 300 302 303 304 305 307 308 308 307 307 307 307 307 306 304 303 302 302 301 300 298 296 293 290 287 284 282 280 278 277 275 274 273 272 271 271 271 271 271 272 272 272 272 271 270 269 267 264 263 264 266 268 269 269 269 269 269 268 267 267 267 267 267 266 266 265 264 265
288 288 288 287 287 288 289 291 293 294 293 292 292 293 295 297 297 298 300 300 301 301 301 303 305 308 309 310 310 309 308 306 304 303 303 303 303 304 303 302 300 296 293 289 286 283 280 279 277 276 275 275 274 273 273 272 272 272 273 273 273 273 272 271 270 268 266 266 266 267 268 268 269 269 269 268 268 267 267 267 267 267 266 266 266 266
287 286 286 286 286 286 287 289 293 296 295 293 292 292 292 293 293 294 295 297 299 300 300 300 302 306 309 311 311 309 307 306 304 303 303 303 304 304 305 305 304 302 299 295 291 287 284 281 280 280 280 279 278 276 275 273 272 271 271 271 270 270 269 269 269 268 267 267 266 266 267 267 267 268 268 268 267 267 266 266 266 266 266 266 266 267
283 283 283 284 285 286 287 288 292 296 297 295 294 294 294 292 290 289 290 293 297 299 300 299 300 302 304 307 308 307 305 304 303 302 302 302 303 303 304 304 305 305 303 300 295 289 285 283 283 283 284 284 283 281 278 276 273 271 271 269 269 268 267 266 266 265 265 265 265 265 265 266 266 267 267 267 267 266 266 265 264 264 265 266 266 267
280 281 280 281 282 284 285 288 292 295 295 294 292 292 292 293 292 289 287 289 292 295 297 299 300 300 300 301 303 304 303 302 301 301 302 302 302 303 304 305 306 308 308 306 300 292 287 284 285 286 288 289 288 286 283 280 277 274 272 271 269 268 267 266 265 265 264 263 263 263 263 264 265 266 266 266 266 266 266 266 266 266 266 266 267 267
280 279 279 279 280 282 284 287 290 291 291 289 287 286 289 293 293 290 286 287 290 293 295 297 298 299 299 298 298 299 300 300 301 301 301 302 302 303 304 305 306 308 310 309 306 301 295 292 290 291 293 294 294 292 289 285 281 278 275 273 272 270 269 268 267 266 265 264 263 262 261 262 262 263 265 265 266 266 267 267 267 268 268 268 268 268
278 278 278 279 280 282 285 286 286 286 286 287 287 287 291 293 292 288 285 285 288 292 293 294 295 297 298 298 297 297 298 299 301 302 302 302 303 303 304 304 305 305 306 306 306 305 303 301 298 298 299 299 299 297 295 291 287 282 278 276 274 272 271 270 268 267 266 265 264 262 261 260 261 261 262 263 265 266 267 268 268 269 269 270 270 270
281 282 282 282 283 285 285 285 285 285 286 288 290 291 292 291 289 286 284 284 288 291 293 293 294 296 296 296 296 297 297 298 299 301 302 304 305 305 304 303 303 303 303 303 302 303 303 302 301 302 302 302 301 299 296 293 290 286 282 279 276 274 272 271 269 268 267 266 265 263 262 261 261 261 262 263 265 266 267 268 269 271 271 272 272 272
290 289 287 286 285 285 286 285 285 286 288 290 291 290 289 287 285 285 284 284 288 291 291 291 292 293 295 297 298 297 295 295 296 298 300 302 304 305 303 301 301 301 301 301 300 301 301 301 301 301 302 302 301 299 296 293 290 287 284 281 279 277 275 273 271 270 268 267 266 265 264 263 263 263 264 265 266 268 269 271 272 273 273 274 274 274
290 287 285 284 284 285 286 286 287 287 289 290 289 288 286 285 286 286 286 287 288 289 289 288 287 288 291 294 296 296 293 290 290 292 294 297 300 302 301 298 297 298 299 299 299 299 300 300 301 302 302 302 302 300 298 295 291 288 284 281 279 278 277 275 274 273 272 270 269 268 267 267 267 267 268 269 270 271 272 273 274 274 275 275 275 274
286 285 285 284 285 286 287 288 288 287 288 287 286 285 285 285 287 288 289 289 289 289 288 287 285 283 285 288 292 294 292 284 281 282 285 289 294 297 298 295 294 295 297 298 298 299 299 300 301 302 303 303 302 301 300 298 294 290 286 282 280 278 277 276 276 275 275 274 273 273 272 271 271 271 271 272 273 273 274 274 274 275 275 275 275 275
288 288 288 288 288 288 289 288 288 287 285 283 282 281 282 284 286 287 288 288 289 288 288 286 284 283 283 284 289 295 294 284 276 275 276 281 287 293 294 291 291 292 294 296 297 298 298 299 301 302 302 303 302 302 301 299 296 292 288 284 281 279 277 276 276 275 275 275 275 274 274 273 273 273 273 273 273 273 274 274 275 275 276 276 275 275
291 291 291 291 292 292 291 291 290 288 284 282 280 280 282 286 288 290 291 292 292 291 290 287 284 284 284 286 292 296 295 287 278 274 274 278 284 289 291 289 288 290 292 295 296 297 297 298 299 300 301 301 301 301 300 298 295 292 288 285 282 279 277 276 275 274 274 274 274 273 273 274 273 273 273 273 273 273 273 274 275 276 276 276 276 276
293 293 294 295 295 294 293 294 294 292 289 286 285 285 287 289 292 294 296 297 295 293 291 287 285 286 288 289 292 295 294 287 279 275 276 279 283 287 289 289 288 289 291 294 296 297 296 297 297 298 299 300 301 300 300 298 295 292 288 285 282 280 278 276 274 274 273 272 272 272 273 273 273 272 272 271 272 272 273 274 275 276 277 277 277 277
296 296 297 298 298 297 297 297 297 297 295 292 289 287 288 289 291 292 295 296 295 292 290 288 289 291 292 292 294 295 294 288 282 278 278 278 280 284 287 288 287 288 289 292 295 296 295 295 295 296 297 298 299 300 299 298 296 293 289 286 283 281 279 277 275 274 273 272 271 272 272 272 271 271 270 270 271 272 273 274 276 277 278 279 280 280
299 299 300 301 301 299 297 295 294 294 294 291 288 287 289 289 290 291 292 294 294 294 294 294 295 294 293 293 293 294 294 292 287 282 278 275 277 281 285 286 285 285 287 290 293 295 294 293 293 294 295 296 298 299 299 299 297 294 291 287 284 282 280 278 276 275 273 272 271 271 272 271 270 270 270 270 270 271 273 274 276 278 279 280 281 282
300 299 300 300 299 296 293 290 288 288 289 289 289 291 292 292 293 294 296 297 297 297 296 295 294 292 291 290 291 292 294 294 291 285 277 274 276 280 284 285 284 284 286 290 292 292 291 291 292 293 294 295 296 298 299 299 297 294 290 287 284 281 280 279 278 277 275 273 272 272 271 270 269 269 269 270 270 271 273 274 276 278 280 281 282 282
298 297 296 296 294 291 288 286 286 287 288 289 291 293 295 296 297 298 297 295 293 291 291 291 290 289 289 289 290 292 292 291 289 284 277 275 278 281 285 285 284 284 286 290 291 290 289 289 291 293 293 294 295 296 298 298 296 293 289 285 283 281 280 280 280 279 278 276 274 273 271 270 269 269 269 270 271 272 273 275 276 278 279 281 281 281
297 296 296 294 291 286 282 281 282 285 288 291 293 295 296 296 295 293 290 288 288 288 289 289 288 288 288 289 289 289 289 288 286 282 278 277 278 281 285 286 285 284 286 289 290 288 286 287 289 291 292 292 294 295 296 296 295 292 288 285 282 281 282 283 284 284 282 279 277 274 272 270 269 269 269 270 270 272 273 275 276 278 280 281 281 281
297 297 298 296 291 284 278 277 279 283 287 290 292 294 294 293 292 290 289 289 290 290 289 288 287 287 288 287 285 285 285 285 283 281 279 278 279 280 283 285 284 284 284 286 286 286 284 284 287 289 291 292 294 295 295 295 294 291 288 285 284 284 285 288 289 289 287 283 279 276 273 271 269 269 270 270 271 272 274 276 277 279 280 281 281 280
296 298 299 297 291 282 274 272 275 282 288 293 296 298 297 295 292 289 289 292 293 292 288 286 285 285 285 284 283 282 281 279 277 277 278 278 276 277 281 284 283 281 281 282 284 285 283 283 285 288 290 293 294 294 294 294 293 291 290 288 287 288 290 293 294 293 290 285 280 276 272 270 269 269 271 272 273 275 276 277 279 280 281 281 281 281
296 298 298 295 288 278 272 273 279 287 293 298 300 301 300 296 293 291 292 293 290 285 281 279 279 280 281 283 283 283 281 279 277 277 277 275 273 274 280 282 280 279 279 280 282 284 283 283 285 289 291 293 293 293 293 294 293 293 292 292 292 293 295 297 298 296 291 285 279 274 270 268 267 268 269 272 274 276 278 279 280 281 281 282 282 282
298 297 295 290 284 280 280 285 290 295 298 300 301 300 299 296 294 292 291 290 285 279 277 277 278 280 282 285 286 286 285 284 284 283 279 271 269 272 278 278 278 278 278 278 278 279 281 284 287 290 291 292 291 291 293 294 295 295 295 295 295 296 298 299 300 296 291 284 277 271 268 266 266 267 269 272 275 277 278 279 281 282 282 283 283 284
296 293 290 287 285 286 289 294 297 299 300 301 301 300 298 296 293 290 288 286 284 282 282 281 282 282 284 286 286 284 284 288 290 289 282 272 270 273 277 277 278 280 279 276 273 274 279 284 287 288 288 288 288 290 293 295 295 296 296 296 296 297 298 300 299 296 291 284 277 271 267 265 265 267 270 273 276 278 279 280 282 283 283 284 284 285
287 286 287 288 289 292 295 299 301 301 301 301 301 300 298 296 292 288 284 284 286 288 287 285 284 283 283 282 280 279 282 286 288 288 285 280 278 279 280 279 280 281 282 279 275 272 273 277 280 280 280 281 283 288 292 294 295 295 295 295 295 296 297 298 298 296 291 285 278 271 267 265 265 267 270 273 276 278 280 282 284 285 286 287 288 290
286 287 289 291 293 297 301 303 303 302 301 301 301 300 298 296 292 287 283 282 286 290 292 289 285 282 280 279 279 280 282 284 285 286 286 285 283 282 282 282 282 282 283 281 278 275 273 272 274 276 277 278 282 286 290 292 293 293 294 294 295 295 296 297 297 296 293 287 280 273 268 266 266 267 269 272 275 278 281 283 285 286 288 291 294 296
291 292 293 295 298 302 305 305 303 302 301 301 302 302 301 299 296 291 285 281 282 286 291 292 289 284 281 280 281 282 282 283 284 285 286 285 284 283 284 283 283 283 282 280 278 276 273 273 274 275 276 280 283 286 289 291 292 293 293 294 295 296 297 298 298 297 295 290 284 277 272 268 267 267 268 270 273 277 281 283 285 287 290 293 295 295
289 290 293 298 303 306 307 306 304 304 303 304 305 306 305 303 298 293 288 284 281 280 282 284 285 283 282 283 283 284 284 284 285 285 284 282 281 282 283 283 283 282 281 279 277 274 272 274 275 276 278 280 283 285 287 289 291 293 294 295 296 298 299 300 300 299 297 293 288 282 276 272 269 268 268 270 273 278 282 286 289 291 293 294 293 292
286 290 297 303 308 310 310 310 309 308 309 310 310 310 307 302 297 293 291 290 288 285 282 280 280 279 280 280 281 281 283 284 285 284 282 279 279 280 281 281 282 282 280 279 277 274 273 274 277 279 279 280 281 284 286 288 290 292 294 296 297 299 300 301 301 301 299 296 292 286 281 276 272 270 270 271 274 279 285 290 294 296 297 297 295 294
296 302 307 311 314 315 316 316 315 315 314 314 312 310 305 301 298 297 297 297 296 294 292 288 284 281 278 277 276 277 279 281 282 281 279 276 274 276 279 280 280 280 280 278 277 277 276 276 277 278 278 278 278 281 284 287 289 290 292 294 297 299 300 301 301 301 300 298 294 289 284 279 275 272 271 272 275 280 284 289 295 298 300 299 298 296
307 310 312 315 318 320 321 321 320 318 316 313 310 307 304 302 301 300 299 297 296 296 296 296 293 286 280 276 275 276 277 278 279 278 276 273 271 272 276 278 278 278 278 277 277 277 277 275 275 275 276 277 279 281 283 285 287 288 290 293 296 297 299 300 301 301 299 297 294 290 286 281 277 273 272 273 277 280 285 289 294 299 302 302 299 297
306 309 313 317 320 323 323 322 320 318 315 312 309 307 307 307 306 304 299 295 293 293 296 297 294 289 282 277 276 275 275 276 276 277 276 274 271 270 272 275 276 276 276 276 276 276 275 275 274 274 275 278 280 282 284 285 287 289 291 293 295 296 298 300 301 300 298 296 294 290 287 282 277 274 273 275 278 283 287 293 299 305 309 309 305 301
301 306 310 316 320 321 322 320 318 316 313 310 308 308 310 310 306 300 295 292 292 294 296 296 294 288 282 278 275 275 274 274 275 276 276 275 273 270 270 272 274 275 275 275 275 274 274 274 275 276 277 278 280 282 283 284 286 288 290 291 292 295 299 301 301 300 297 296 294 292 288 283 278 274 274 274 278 283 290 297 304 309 314 316 316 313
296 301 307 313 318 320 320 318 316 313 311 309 309 311 311 306 300 296 293 293 295 297 299 299 296 291 285 281 279 278 278 277 276 276 276 275 273 271 270 270 273 274 275 275 274 274 273 273 275 276 278 279 281 282 283 283 284 285 286 287 291 295 300 301 300 298 296 295 294 292 288 283 278 275 274 274 275 280 289 297 305 310 314 317 320 321
292 298 305 311 315 317 316 315 313 311 310 311 312 310 305 300 298 298 299 300 302 304 306 306 304 300 295 291 288 286 284 282 279 277 275 274 273 271 270 270 271 273 275 276 276 275 273 273 274 275 276 278 280 281 282 283 283 284 284 286 291 296 298 297 296 296 295 294 294 292 288 285 282 280 277 274 274 278 286 294 302 309 315 319 322 324
291 296 302 308 312 313 313 312 311 312 313 314 311 306 302 302 303 304 306 308 311 312 313 313 310 307 303 299 296 293 291 288 284 280 276 274 273 271 270 269 269 271 273 275 276 275 275 274 274 274 275 277 278 279 280 281 283 283 284 286 289 290 290 291 294 295 294 294 293 292 289 287 284 281 276 272 272 274 282 289 296 304 311 318 322 325
291 295 299 304 308 311 311 311 312 314 314 311 308 308 309 311 312 314 315 316 317 318 317 317 315 311 307 305 303 302 300 297 292 288 283 279 276 274 272 271 269 268 269 273 275 276 277 276 276 276 277 278 278 279 280 281 282 283 284 285 286 285 284 288 291 293 292 292 291 290 289 287 283 279 274 270 269 270 275 282 289 298 308 315 320 323
292 295 299 304 308 310 310 312 313 313 311 310 311 314 316 318 319 320 320 320 320 319 319 319 318 315 311 309 308 307 305 302 300 298 295 291 286 281 278 275 272 270 268 268 270 274 277 278 279 280 281 280 279 279 279 280 281 283 284 285 286 286 287 289 290 290 290 290 291 290 289 285 281 276 273 269 266 265 267 274 283 295 308 316 321 324
295 300 304 308 310 310 310 310 311 311 312 314 316 319 320 322 323 322 321 319 318 317 317 317 317 314 311 310 310 310 308 305 304 305 306 304 299 293 287 281 276 273 270 268 267 268 270 274 278 282 283 281 279 277 277 278 280 282 284 287 287 288 288 289 289 289 290 291 291 291 288 282 277 274 271 267 262 259 260 266 277 292 309 319 323 325
304 309 312 313 313 311 309 308 310 312 315 317 319 320 320 320 320 318 316 314 314 314 314 315 315 314 313 313 314 314 313 313 312 311 311 311 308 303 295 288 281 276 272 269 268 267 267 268 272 277 279 279 278 277 277 278 280 282 285 288 289 289 289 290 291 292 292 292 292 291 288 282 277 273 269 263 257 254 253 258 269 286 306 320 326 326
312 315 316 316 313 310 308 309 312 315 316 316 316 316 316 315 314 312 310 310 311 312 313 314 316 318 318 318 317 317 316 316 314 313 312 311 309 305 299 292 286 280 274 271 269 268 268 268 270 273 275 275 275 276 277 279 281 283 286 288 289 289 291 292 293 293 293 292 292 291 288 284 281 277 272 265 257 250 247 250 259 276 304 324 331 329
317 319 318 316 312 310 311 314 317 318 316 314 312 311 311 311 310 309 308 309 310 312 313 316 319 320 320 320 320 320 319 318 317 315 312 310 309 307 304 299 293 287 281 277 274 273 273 273 273 273 275 275 275 275 278 280 283 285 288 289 289 290 292 292 293 293 292 292 290 289 286 282 277 273 270 268 261 251 243 242 248 263 305 338 343 335
320 320 318 314 312 311 314 317 319 317 314 311 309 308 309 310 311 310 310 310 311 312 313 316 318 319 319 321 324 326 327 328 327 325 321 318 315 313 310 306 302 297 291 288 286 285 284 284 281 277 274 275 276 278 280 283 286 289 290 291 292 293 293 293 293 292 292 291 289 286 282 276 269 264 262 263 258 249 239 235 236 246 303 7 9 350
321 320 317 313 310 311 314 317 317 314 311 309 308 308 309 310 310 310 311 311 311 311 312 312 313 315 318 321 325 329 332 332 331 330 327 323 320 317 313 309 304 298 294 291 290 290 289 288 286 284 282 279 280 282 284 287 290 292 293 294 296 297 296 295 295 294 293 291 288 285 280 273 265 258 254 255 254 247 236 228 225 224 225 45 37 20